Location: Góry Miechowskie
(50.3599°N, 20.1803°E)
Time: 00:13:46
(UTC+00:00)

Transit 2A - All Passes

Search period start: 12 September 2024 00:00
Search period end: 22 September 2024 00:00
Orbit: 590 x 961 km, 66.7° (Epoch: 11 September)

Date Brightness Start Highest point End Pass type
(mag) Time Alt. Az. Time Alt. Az. Time Alt. Az.
12 Sep - 01:35:40 10° NNW 01:41:53 52° NE 01:47:46 10° ESE visible
12 Sep - 03:19:09 10° NW 03:25:00 41° WSW 03:30:30 10° S visible
12 Sep - 16:21:55 10° SE 16:25:02 15° E 16:28:14 10° ENE daylight
12 Sep - 18:01:08 10° SSW 18:07:04 69° ESE 18:13:22 10° NE visible
12 Sep - 19:45:07 10° WSW 19:50:45 37° NW 19:56:38 10° NNE visible
12 Sep - 21:31:24 10° NW 21:35:49 19° N 21:40:15 10° NNE visible
12 Sep - 23:16:47 10° NNW 23:21:23 20° NNE 23:25:54 10° ENE visible
13 Sep - 01:00:16 10° NNW 01:06:17 42° NE 01:12:00 10° ESE visible
13 Sep - 02:43:35 10° NW 02:49:45 56° WSW 02:55:30 10° SSE visible
13 Sep - 04:30:02 10° W 04:31:32 11° W 04:33:00 10° WSW daylight
13 Sep - 17:26:00 10° SSW 17:31:45 51° ESE 17:37:52 10° NE visible
13 Sep - 19:09:16 10° WSW 19:15:07 45° NW 19:21:13 10° NNE visible
13 Sep - 20:55:18 10° WNW 20:59:56 21° NNW 21:04:38 10° NNE visible
13 Sep - 22:41:08 10° NW 22:45:30 19° N 22:49:49 10° NE visible
14 Sep - 00:24:51 10° NNW 00:30:37 34° NE 00:36:08 10° E visible
14 Sep - 02:08:05 10° NW 02:14:25 76° WSW 02:20:18 10° SSE visible
14 Sep - 03:52:56 10° WNW 03:56:31 16° WSW 04:00:00 10° SW daylight
14 Sep - 16:51:04 10° S 16:56:30 38° ESE 17:02:15 10° NE daylight
14 Sep - 18:33:33 10° SW 18:39:32 57° NW 18:45:49 10° NNE visible
14 Sep - 20:19:11 10° WNW 20:24:05 23° NNW 20:29:05 10° NNE visible
14 Sep - 22:05:21 10° NW 22:09:35 18° N 22:13:47 10° NE visible
14 Sep - 23:49:25 10° NNW 23:54:54 29° NNE 00:00:10 10° E visible
15 Sep - 01:32:37 10° NW 01:39:00 84° NE 01:44:57 10° SE visible
15 Sep - 03:16:47 10° WNW 03:21:27 23° WSW 03:25:55 10° SSW visible
15 Sep - 16:16:21 10° SSE 16:21:19 28° ESE 16:26:32 10° NE daylight
15 Sep - 17:57:57 10° SW 18:04:00 72° NW 18:10:24 10° NE visible
15 Sep - 19:43:06 10° W 19:48:17 27° NNW 19:53:36 10° NNE visible
15 Sep - 21:29:29 10° NW 21:33:40 18° N 21:37:51 10° NE visible
15 Sep - 23:13:57 10° NNW 23:19:06 25° NNE 23:24:06 10° ENE visible
16 Sep - 00:57:11 10° NW 01:03:31 65° NE 01:09:26 10° SE visible
16 Sep - 02:40:56 10° NW 02:46:19 31° WSW 02:51:23 10° S visible
16 Sep - 15:41:58 10° SSE 15:46:12 20° ESE 15:50:36 10° ENE daylight
16 Sep - 17:22:30 10° SSW 17:28:33 88° ESE 17:34:57 10° NE visible
16 Sep - 19:07:04 10° W 19:12:31 31° NNW 19:18:08 10° NNE visible
16 Sep - 20:53:29 10° NW 20:57:45 18° N 21:02:01 10° NE visible
16 Sep - 22:38:26 10° NNW 22:43:17 22° NNE 22:48:00 10° ENE visible
17 Sep - 00:21:46 10° NNW 00:27:57 51° NE 00:33:47 10° ESE visible
17 Sep - 02:05:15 10° NW 02:11:07 43° WSW 02:16:35 10° S visible
17 Sep - 15:08:08 10° SE 15:11:09 14° E 15:14:15 10° ENE daylight
17 Sep - 16:47:11 10° SSW 16:53:09 67° ESE 16:59:28 10° NE daylight
17 Sep - 18:31:07 10° WSW 18:36:49 37° NW 18:42:43 10° NNE visible
17 Sep - 20:17:24 10° WNW 20:21:51 19° NNW 20:26:17 10° NNE visible
17 Sep - 22:02:50 10° NNW 22:07:24 20° NNE 22:11:53 10° ENE visible
17 Sep - 23:46:22 10° NNW 23:52:20 41° NE 23:57:59 10° ESE visible
18 Sep - 01:29:40 10° NW 01:35:50 58° WSW 01:41:33 10° SSE visible
18 Sep - 03:15:54 10° W 03:17:38 11° W 03:19:20 10° WSW visible
18 Sep - 16:12:04 10° S 16:17:50 50° ESE 16:23:55 10° NE daylight
18 Sep - 17:55:16 10° WSW 18:01:10 46° NW 18:07:18 10° NNE visible
18 Sep - 19:41:16 10° WNW 19:45:57 21° NNW 19:50:40 10° NNE visible
18 Sep - 21:27:10 10° NW 21:31:30 19° N 21:35:47 10° NE visible
18 Sep - 23:10:56 10° NNW 23:16:38 33° NNE 23:22:05 10° E visible
19 Sep - 00:54:10 10° NW 01:00:28 78° WSW 01:06:19 10° SSE visible
19 Sep - 02:38:56 10° WNW 02:42:37 17° WSW 02:46:09 10° SW visible
19 Sep - 15:37:07 10° S 15:42:34 37° ESE 15:48:18 10° NE daylight
19 Sep - 17:19:32 10° SW 17:25:34 58° NW 17:31:53 10° NNE visible
19 Sep - 19:05:08 10° WNW 19:10:06 24° NNW 19:15:07 10° NNE visible
19 Sep - 20:51:21 10° NW 20:55:34 18° N 20:59:45 10° NE visible
19 Sep - 22:35:29 10° NNW 22:40:53 28° NNE 22:46:06 10° E visible
20 Sep - 00:18:41 10° NW 00:25:02 81° NE 00:30:56 10° SE visible
20 Sep - 02:02:48 10° WNW 02:07:31 23° WSW 02:11:59 10° SSW visible
20 Sep - 15:02:26 10° SSE 15:07:22 27° ESE 15:12:32 10° NE daylight
20 Sep - 16:43:56 10° SW 16:50:02 74° NW 16:56:26 10° NE daylight
20 Sep - 18:29:02 10° W 18:34:16 27° NNW 18:39:37 10° NNE visible
20 Sep - 20:15:26 10° NW 20:19:38 18° N 20:23:48 10° NE visible
20 Sep - 21:59:59 10° NNW 22:05:05 24° NNE 22:10:01 10° ENE visible
20 Sep - 23:43:14 10° NW 23:49:31 63° NE 23:55:23 10° SE visible
21 Sep - 01:26:57 10° NW 01:32:22 32° WSW 01:37:25 10° S visible
21 Sep - 14:28:04 10° SSE 14:32:14 20° ESE 14:36:34 10° ENE daylight
21 Sep - 16:08:28 10° SSW 16:14:33 86° SE 16:20:58 10° NE daylight
21 Sep - 17:52:59 10° W 17:58:30 32° NNW 18:04:09 10° NNE visible
21 Sep - 19:39:25 10° NW 19:43:42 18° N 19:47:58 10° NE visible
21 Sep - 21:24:26 10° NNW 21:29:14 22° NNE 21:33:54 10° ENE visible
21 Sep - 23:07:48 10° NNW 23:13:56 49° NE 23:19:42 10° ESE visible
